This is the latest recevied weather packets stored in our database for station/object KE0PRS. If no packets are shown the sender has not sent any weather packets the latest 10 day(s).
| Time | Temp. | Humidity | Pressure | Rain* | Wind** | Luminosity | Snow |
|---|---|---|---|---|---|---|---|
| 1788110666 | 35.56° C | 35% | 1012.8 hPa | 0 mm | - | 699 W/m² | - |
| 1788110367 | 35° C | 34% | 1012.7 hPa | 0 mm | - | 691 W/m² | - |
| 1788110063 | 35° C | 34% | 1012.7 hPa | 0 mm | - | 678 W/m² | - |
| 1788109762 | 35° C | 34% | 1012.8 hPa | 0 mm | - | 675 W/m² | - |
| 1788109462 | 35° C | 35% | 1012.8 hPa | 0 mm | - | 662 W/m² | - |
| 1788109160 | 35.56° C | 34% | 1013 hPa | 0 mm | - | 649 W/m² | - |
| 1788108857 | 35° C | 36% | 1013.1 hPa | 0 mm | - | 638 W/m² | - |
| 1788108553 | 34.44° C | 35% | 1012.8 hPa | 0 mm | - | 626 W/m² | - |
| 1788108248 | 34.44° C | 35% | 1012.7 hPa | 0 mm | - | 614 W/m² | - |
| 1788107945 | 35° C | 35% | 1012.7 hPa | 0 mm | - | 602 W/m² | - |
| 1788107640 | 34.44° C | 36% | 1012.8 hPa | 0 mm | - | 585 W/m² | - |
| 1788107340 | 34.44° C | 35% | 1012.7 hPa | 0 mm | - | 574 W/m² | - |
| 1788107036 | 33.89° C | 37% | 1012.7 hPa | 0 mm | - | 558 W/m² | - |
| 1788106731 | 33.89° C | 37% | 1012.6 hPa | 0 mm | - | 542 W/m² | - |
| 1788106430 | 33.33° C | 38% | 1012.5 hPa | 0 mm | - | 531 W/m² | - |
| 1788106126 | 32.78° C | 39% | 1012.8 hPa | 0 mm | - | 517 W/m² | - |
| 1788105821 | 32.78° C | 38% | 1012.4 hPa | 0 mm | - | 505 W/m² | - |
| 1788105517 | 32.78° C | 39% | 1012.6 hPa | 0 mm | - | 490 W/m² | - |
| 1788105213 | 32.22° C | 41% | 1012.6 hPa | 0 mm | - | 477 W/m² | - |
| 1788104913 | 32.22° C | 39% | 1012.5 hPa | 0 mm | - | 463 W/m² | - |
| 1788104609 | 32.22° C | 40% | 1012.4 hPa | 0 mm | - | 451 W/m² | - |
| 1788104306 | 32.22° C | 40% | 1012.5 hPa | 0 mm | - | 438 W/m² | - |
| 1788104001 | 32.22° C | 39% | 1012.6 hPa | 0 mm | - | 425 W/m² | - |
| 1788103699 | 31.67° C | 40% | 1012.4 hPa | 0 mm | - | 411 W/m² | - |
| 1788103395 | 31.67° C | 42% | 1012.4 hPa | 0 mm | - | 398 W/m² | - |
* Rain latest hour (hover to see other rain measurements)
** Current wind speed in m/s (hover to see current wind gust speed)